Precipitable_Water
0.19 0.27 0.26 0.26 0.18 0.18 0.20 0.23 0.29 0.29 0.33 0.52 0.60 0.77 0.68 0.76 0.70 0.63 1.24 1.21 1.27 1.29 1.35 1.11 1.01 0.98 1.04 1.15 1.26 1.37 1.42 1.38 1.48 1.50 1.50 1.57 1.65 1.63 1.61 1.54 1.37 1.55 1.50 1.48 1.64 1.78 1.74 1.62 1.36
0.18 0.22 0.18 0.22 0.20 0.21 0.25 0.30 0.29 0.29 0.30 0.40 0.51 0.75 0.79 0.78 0.98 1.11 1.14 1.29 1.26 1.26 1.28 1.20 1.08 1.03 0.96 0.99 1.10 1.21 1.27 1.34 1.36 1.25 1.30 1.50 1.56 1.54 1.56 1.44 1.26 1.20 1.33 1.38 1.39 1.59 1.87 1.72 1.62
0.19 0.24 0.15 0.19 0.20 0.25 0.30 0.31 0.30 0.28 0.31 0.33 0.50 0.82 0.83 0.80 0.96 0.95 1.18 1.23 1.22 1.17 1.20 1.10 1.08 1.06 1.00 0.95 0.96 1.06 1.14 1.20 1.25 1.27 1.44 1.54 1.55 1.59 1.57 1.50 1.44 1.43 1.44 1.46 1.63 1.68 1.86 1.78 1.72
0.19 0.18 0.18 0.20 0.22 0.27 0.31 0.32 0.31 0.26 0.30 0.32 0.57 0.65 0.88 1.07 0.96 1.07 1.16 1.14 1.11 1.13 1.14 1.09 1.08 1.01 0.98 0.93 0.97 0.98 0.96 1.00 1.04 1.06 1.17 1.30 1.33 1.37 1.37 1.30 1.29 1.30 1.38 1.47 1.60 1.60 1.42 1.79 1.73
0.21 0.20 0.16 0.20 0.21 0.22 0.25 0.29 0.31 0.25 0.45 0.46 0.54 0.75 0.98 1.04 1.10 1.00 0.99 1.07 1.03 1.05 1.13 1.07 1.00 1.01 1.01 0.97 0.94 0.95 0.98 0.97 0.96 0.95 0.96 0.99 1.02 1.17 1.25 1.30 1.33 1.35 1.44 1.46 1.35 1.30 1.25 1.47 1.48
0.20 0.21 0.18 0.19 0.17 0.17 0.22 0.27 0.33 0.38 0.46 0.50 0.69 0.88 0.83 1.07 1.02 1.05 1.03 1.01 1.11 1.05 1.09 1.12 1.08 1.01 0.98 0.93 0.90 0.92 0.97 1.00 1.01 0.99 0.98 1.00 1.00 0.97 1.01 1.06 1.09 1.10 1.14 1.16 1.08 1.13 1.34 1.44 1.43
0.21 0.21 0.20 0.19 0.16 0.16 0.17 0.22 0.26 0.29 0.42 0.40 0.62 0.63 0.85 0.71 0.96 1.00 0.97 0.94 0.94 1.02 1.07 1.15 1.14 1.10 1.06 1.00 0.94 0.92 0.94 0.96 1.00 1.04 1.02 1.03 1.05 1.01 0.96 0.94 0.93 0.90 0.89 0.97 1.11 1.16 1.24 1.27 1.27
0.22 0.20 0.17 0.17 0.18 0.16 0.16 0.21 0.23 0.24 0.23 0.26 0.28 0.51 0.71 0.91 0.83 0.86 0.87 0.94 0.98 0.96 1.01 1.00 1.07 1.13 1.03 0.97 0.92 0.90 0.96 0.99 0.99 1.01 1.03 1.04 1.06 1.05 1.03 1.03 1.05 1.05 1.07 1.05 1.10 1.17 1.25 1.26 1.21
0.23 0.19 0.15 0.15 0.18 0.17 0.18 0.18 0.27 0.25 0.25 0.27 0.28 0.42 0.86 0.98 0.82 0.74 0.77 0.84 0.92 0.86 0.80 0.88 0.95 1.04 1.00 1.05 0.93 1.03 1.07 1.04 1.05 1.05 1.02 1.09 1.17 1.11 1.15 1.10 1.13 1.15 1.15 1.17 1.20 1.15 1.14 1.20 1.22
0.26 0.22 0.19 0.19 0.18 0.20 0.20 0.18 0.21 0.19 0.25 0.30 0.38 0.41 0.59 0.68 0.67 0.64 0.73 0.83 0.81 0.66 0.66 0.74 0.83 0.93 0.98 1.08 1.03 1.23 1.17 1.14 1.16 1.18 1.10 1.12 1.13 1.09 1.04 1.02 1.02 1.03 1.02 0.99 1.02 1.13 1.17 1.14 1.14
0.26 0.18 0.20 0.22 0.23 0.20 0.21 0.21 0.25 0.22 0.24 0.33 0.32 0.44 0.53 0.55 0.59 0.66 0.67 0.73 0.66 0.63 0.69 0.74 0.81 0.89 0.99 1.11 1.13 1.20 1.10 1.06 1.06 1.01 1.02 1.00 0.90 0.85 0.82 0.82 0.85 0.86 0.72 0.74 0.73 0.90 0.99 0.96 1.03
0.22 0.20 0.23 0.24 0.23 0.22 0.24 0.26 0.23 0.25 0.25 0.31 0.35 0.39 0.47 0.51 0.57 0.59 0.58 0.56 0.52 0.57 0.60 0.61 0.71 0.70 0.73 0.82 0.85 0.93 0.85 0.83 0.83 0.84 0.78 0.72 0.71 0.64 0.65 0.66 0.65 0.60 0.62 0.62 0.63 0.61 0.66 0.76 0.94
0.23 0.23 0.26 0.26 0.27 0.24 0.21 0.22 0.25 0.22 0.26 0.27 0.27 0.36 0.40 0.45 0.50 0.52 0.49 0.46 0.46 0.46 0.53 0.55 0.57 0.61 0.67 0.69 0.72 0.73 0.69 0.65 0.65 0.63 0.64 0.70 0.67 0.64 0.66 0.63 0.63 0.63 0.68 0.66 0.65 0.64 0.62 0.63 0.78
0.24 0.27 0.27 0.27 0.27 0.24 0.22 0.23 0.24 0.24 0.29 0.26 0.27 0.31 0.35 0.40 0.44 0.44 0.40 0.40 0.42 0.45 0.48 0.53 0.51 0.57 0.62 0.69 0.65 0.61 0.59 0.55 0.54 0.58 0.62 0.64 0.69 0.68 0.73 0.68 0.66 0.64 0.66 0.70 0.73 0.76 0.74 0.73 0.78
0.32 0.28 0.33 0.35 0.27 0.21 0.25 0.20 0.22 0.30 0.31 0.27 0.26 0.29 0.32 0.36 0.38 0.36 0.38 0.39 0.42 0.46 0.48 0.49 0.50 0.58 0.61 0.65 0.63 0.59 0.56 0.55 0.57 0.62 0.61 0.62 0.64 0.58 0.59 0.59 0.59 0.62 0.59 0.59 0.57 0.59 0.65 0.70 0.76
0.29 0.31 0.22 0.25 0.25 0.26 0.22 0.16 0.24 0.28 0.28 0.28 0.30 0.30 0.32 0.34 0.36 0.40 0.41 0.41 0.45 0.47 0.47 0.48 0.47 0.52 0.57 0.59 0.58 0.56 0.57 0.58 0.62 0.68 0.66 0.60 0.58 0.60 0.60 0.59 0.58 0.54 0.56 0.58 0.52 0.48 0.46 0.55 0.60
0.29 0.20 0.23 0.26 0.30 0.25 0.23 0.19 0.24 0.28 0.27 0.27 0.30 0.31 0.32 0.35 0.40 0.42 0.41 0.42 0.43 0.46 0.47 0.47 0.49 0.47 0.53 0.56 0.58 0.56 0.58 0.58 0.62 0.69 0.67 0.65 0.61 0.59 0.59 0.60 0.60 0.55 0.53 0.53 0.52 0.51 0.49 0.46 0.45
0.18 0.23 0.27 0.28 0.30 0.28 0.26 0.25 0.29 0.30 0.29 0.28 0.29 0.30 0.31 0.32 0.32 0.41 0.45 0.46 0.46 0.48 0.49 0.49 0.50 0.49 0.52 0.53 0.53 0.56 0.57 0.57 0.60 0.61 0.63 0.64 0.61 0.59 0.57 0.59 0.59 0.60 0.57 0.56 0.57 0.55 0.54 0.53 0.51
0.22 0.25 0.26 0.29 0.29 0.27 0.25 0.25 0.28 0.29 0.26 0.25 0.26 0.28 0.31 0.32 0.35 0.38 0.45 0.48 0.48 0.49 0.49 0.49 0.48 0.50 0.51 0.51 0.51 0.51 0.52 0.55 0.59 0.61 0.62 0.64 0.64 0.62 0.61 0.60 0.59 0.60 0.58 0.59 0.58 0.57 0.56 0.54 0.55
0.21 0.23 0.25 0.27 0.30 0.28 0.26 0.25 0.29 0.27 0.26 0.25 0.26 0.30 0.32 0.35 0.38 0.41 0.46 0.48 0.48 0.49 0.51 0.52 0.53 0.54 0.54 0.55 0.54 0.54 0.55 0.57 0.60 0.62 0.64 0.64 0.63 0.61 0.62 0.63 0.61 0.62 0.60 0.59 0.60 0.61 0.57 0.55 0.55
0.19 0.27 0.25 0.24 0.29 0.31 0.28 0.25 0.28 0.28 0.28 0.27 0.30 0.33 0.35 0.35 0.37 0.40 0.44 0.47 0.52 0.53 0.56 0.58 0.58 0.56 0.56 0.57 0.57 0.56 0.56 0.58 0.58 0.59 0.60 0.62 0.62 0.67 0.67 0.68 0.68 0.65 0.64 0.62 0.62 0.59 0.56 0.53 0.57
0.17 0.29 0.28 0.28 0.27 0.21 0.28 0.18 0.25 0.28 0.28 0.29 0.32 0.36 0.38 0.41 0.44 0.45 0.47 0.50 0.53 0.57 0.62 0.64 0.63 0.62 0.61 0.61 0.58 0.58 0.54 0.53 0.57 0.57 0.58 0.60 0.66 0.69 0.69 0.69 0.68 0.67 0.64 0.62 0.63 0.63 0.61 0.57 0.51
0.23 0.31 0.31 0.31 0.29 0.27 0.27 0.20 0.26 0.31 0.29 0.31 0.34 0.37 0.41 0.44 0.46 0.48 0.51 0.54 0.57 0.60 0.63 0.65 0.66 0.67 0.66 0.65 0.63 0.60 0.59 0.59 0.60 0.61 0.59 0.59 0.61 0.62 0.63 0.65 0.67 0.66 0.65 0.62 0.60 0.54 0.51 0.52 0.52
0.35 0.33 0.30 0.34 0.31 0.22 0.31 0.29 0.22 0.29 0.33 0.33 0.35 0.38 0.43 0.46 0.50 0.54 0.58 0.60 0.60 0.62 0.62 0.66 0.67 0.67 0.68 0.67 0.66 0.63 0.59 0.60 0.60 0.59 0.58 0.58 0.59 0.60 0.61 0.61 0.62 0.59 0.56 0.55 0.49 0.46 0.46 0.46 0.46
0.37 0.30 0.22 0.19 0.23 0.23 0.34 0.28 0.28 0.33 0.37 0.38 0.37 0.41 0.45 0.50 0.53 0.57 0.59 0.61 0.62 0.63 0.64 0.66 0.67 0.66 0.69 0.70 0.70 0.67 0.64 0.62 0.59 0.60 0.59 0.56 0.57 0.56 0.54 0.54 0.55 0.52 0.51 0.44 0.43 0.42 0.41 0.40 0.39
0.35 0.34 0.28 0.20 0.19 0.21 0.28 0.24 0.28 0.38 0.41 0.43 0.44 0.47 0.50 0.53 0.58 0.58 0.63 0.66 0.67 0.67 0.68 0.69 0.68 0.66 0.69 0.70 0.70 0.70 0.66 0.63 0.62 0.63 0.62 0.58 0.55 0.53 0.55 0.56 0.53 0.48 0.47 0.48 0.44 0.41 0.39 0.37 0.35
0.35 0.34 0.42 0.31 0.32 0.28 0.30 0.35 0.40 0.44 0.44 0.46 0.52 0.53 0.54 0.56 0.60 0.63 0.66 0.68 0.68 0.69 0.71 0.73 0.72 0.71 0.70 0.70 0.71 0.68 0.65 0.63 0.61 0.62 0.61 0.58 0.53 0.52 0.53 0.55 0.51 0.51 0.46 0.43 0.41 0.38 0.36 0.35 0.34
0.42 0.46 0.33 0.37 0.25 0.22 0.26 0.30 0.30 0.40 0.45 0.48 0.52 0.55 0.57 0.61 0.64 0.66 0.67 0.69 0.70 0.73 0.72 0.72 0.72 0.69 0.67 0.67 0.66 0.64 0.63 0.63 0.62 0.59 0.57 0.54 0.55 0.57 0.54 0.53 0.50 0.44 0.41 0.39 0.37 0.35 0.33 0.31 0.31
0.39 0.36 0.41 0.42 0.39 0.28 0.25 0.28 0.42 0.42 0.45 0.50 0.53 0.57 0.61 0.63 0.65 0.67 0.69 0.70 0.71 0.71 0.71 0.69 0.67 0.63 0.61 0.60 0.62 0.60 0.59 0.59 0.58 0.56 0.53 0.57 0.55 0.55 0.53 0.49 0.42 0.40 0.39 0.36 0.33 0.31 0.30 0.28 0.26
0.44 0.42 0.44 0.36 0.33 0.38 0.34 0.29 0.48 0.51 0.53 0.55 0.56 0.58 0.61 0.64 0.66 0.66 0.67 0.68 0.69 0.70 0.71 0.69 0.65 0.60 0.57 0.58 0.56 0.55 0.55 0.55 0.52 0.48 0.52 0.54 0.52 0.52 0.47 0.42 0.41 0.39 0.36 0.33 0.30 0.26 0.26 0.25 0.24
Wind_Speed
14 14 11 12 10 9 14 11 5 4 9 9 9 5 3 4 7 7 6 5 5 5 6 6 7 7 8 8 10 11 10 10 11 11 12 13 14 15 16 17 19 23 20 21 22 24 24 21 20
12 11 9 9 10 12 3 4 3 4 8 10 9 5 6 5 3 4 5 5 5 6 6 8 8 9 9 10 12 12 12 13 14 16 15 16 16 18 20 23 25 24 23 22 24 22 21 21 20
8 7 8 7 8 5 3 2 3 5 8 9 8 5 8 4 4 8 6 7 7 7 8 9 9 10 10 11 13 13 13 14 14 15 15 15 18 19 22 23 24 25 24 21 21 20 16 19 20
5 4 5 6 2 3 3 6 6 6 6 9 6 6 8 8 5 4 6 7 7 8 8 10 10 11 12 12 13 13 14 13 14 14 15 16 18 18 19 20 20 22 23 21 23 25 22 19 18
4 4 9 4 2 5 5 7 7 6 3 5 7 8 6 5 5 5 6 7 7 8 9 10 11 12 13 14 14 15 15 15 15 16 17 18 19 19 20 21 21 23 23 23 24 28 27 25 18
3 4 8 3 2 2 4 5 4 6 6 7 5 9 7 6 6 7 8 8 9 10 11 11 13 14 15 15 15 15 16 16 16 17 17 17 18 19 19 20 21 23 23 22 23 22 23 23 20
5 6 3 4 1 3 4 4 4 5 4 5 4 6 10 8 8 8 9 10 11 12 13 14 15 16 15 15 15 15 16 16 16 17 16 16 16 17 18 19 21 22 22 22 21 20 21 22 22
2 2 4 2 2 2 4 3 5 5 5 8 6 6 8 6 6 8 10 10 11 12 13 14 15 14 15 16 16 16 17 17 17 17 17 17 17 18 19 19 20 21 23 23 23 22 22 23 25
2 1 4 4 6 3 3 6 4 7 8 7 8 7 5 9 9 10 11 13 12 13 13 14 15 15 16 17 16 16 15 15 15 15 16 15 15 17 17 18 18 19 20 22 23 24 24 25 26
5 5 6 3 4 7 5 4 7 7 7 8 7 8 9 10 11 11 11 10 10 11 12 13 15 16 17 17 16 13 13 12 13 13 13 13 12 13 14 15 16 17 19 21 24 25 25 25 29
9 10 5 4 5 5 6 7 3 5 6 8 5 3 4 5 6 7 7 6 7 9 10 12 13 13 13 12 12 10 10 11 10 11 11 11 13 13 14 16 16 17 18 19 20 20 25 29 30
11 10 8 9 7 5 6 6 6 5 5 5 5 5 3 3 4 4 5 5 7 7 9 10 10 10 9 8 7 8 9 10 11 11 12 13 14 15 16 17 18 19 20 20 21 21 23 26 27
10 7 6 6 5 5 6 6 5 6 6 4 4 3 3 4 4 5 5 6 8 9 9 10 10 10 9 10 11 12 13 13 14 15 16 17 18 18 19 19 20 21 22 22 23 24 24 24 22
7 5 5 4 5 7 7 9 8 8 3 5 5 5 6 6 7 7 8 10 10 11 11 12 12 12 13 14 14 15 17 17 18 19 20 20 20 21 21 23 23 23 24 25 25 25 25 25 25
6 4 1 2 7 9 9 13 6 5 3 7 8 8 9 9 9 10 11 11 13 13 13 13 14 14 15 16 17 18 19 20 21 21 22 23 23 24 24 25 25 26 26 26 27 27 27 27 27
5 4 9 6 7 6 8 10 8 6 6 8 9 10 11 12 13 13 13 13 13 14 14 15 16 17 18 19 20 21 21 22 23 24 24 25 26 26 27 28 28 28 29 28 28 28 29 28 28
5 11 11 10 7 8 9 14 13 13 13 12 11 11 12 13 13 14 14 14 15 16 16 17 18 20 21 21 22 23 24 25 26 27 27 27 28 28 29 30 30 31 30 30 30 30 30 30 31
10 11 11 12 10 12 13 14 13 14 14 13 12 12 12 12 13 14 14 15 15 17 18 19 21 22 23 23 24 25 27 27 28 30 30 29 30 30 31 32 32 33 33 33 33 33 33 33 33
10 11 13 13 12 16 16 16 14 9 10 8 9 9 9 11 12 13 13 14 16 19 20 22 23 24 24 26 27 29 29 30 30 31 31 32 32 33 33 34 35 35 35 35 36 36 35 35 34
13 13 12 13 17 17 17 17 13 4 8 8 7 7 8 10 12 12 13 15 18 20 22 23 25 27 28 28 30 30 30 32 33 33 34 35 35 36 36 36 36 36 37 38 39 38 38 36 35
14 9 14 17 18 14 14 13 5 5 4 5 6 7 9 11 13 14 15 19 20 22 24 27 28 29 30 31 31 33 33 34 34 35 36 37 38 37 38 38 38 38 39 38 38 39 39 39 36
12 13 17 17 16 13 16 10 10 5 5 6 8 10 12 13 15 17 18 21 23 26 27 28 30 31 32 33 34 34 35 35 36 37 38 40 39 38 38 38 39 39 39 39 39 38 38 39 39
13 17 19 19 16 15 9 10 8 8 10 9 9 12 14 18 19 21 23 24 27 28 29 30 31 31 33 34 36 37 36 38 38 38 39 38 37 38 39 40 41 41 40 39 40 39 40 40 41
15 19 19 9 8 9 10 9 14 12 10 11 14 18 20 21 23 24 25 27 29 30 30 31 32 34 35 36 38 38 39 39 40 40 40 40 40 40 40 40 39 39 39 41 41 42 42 42 42
16 17 11 9 8 9 14 17 17 19 15 14 18 21 23 25 26 26 30 31 30 33 33 34 36 37 38 39 39 40 40 41 41 42 42 42 41 41 40 40 40 41 42 42 43 44 44 44 44
17 13 10 11 12 17 22 15 14 13 15 18 20 23 26 24 26 32 32 31 33 34 35 36 39 41 41 42 43 42 41 42 42 42 42 40 40 40 42 43 41 40 43 44 44 45 45 44 43
13 12 14 16 17 16 14 19 21 15 12 16 24 27 22 29 31 32 32 33 34 36 38 42 43 43 42 43 44 42 42 41 41 41 40 40 40 40 40 41 41 43 43 44 44 45 44 43 42
13 16 14 13 15 18 19 24 17 20 24 30 28 24 29 31 34 33 34 35 37 41 43 45 44 44 43 43 41 40 40 40 41 40 39 39 41 42 41 41 41 42 43 44 44 45 44 43 42
14 16 15 18 18 19 22 19 25 31 31 24 29 34 36 34 33 34 34 37 40 43 45 47 47 44 43 42 42 40 40 40 40 40 39 40 40 40 40 40 41 42 44 44 45 44 44 44 45
15 16 18 18 23 25 28 30 23 23 22 36 39 34 35 34 34 34 38 41 43 45 47 50 46 44 43 43 41 40 39 39 38 36 37 38 38 38 38 40 41 43 44 45 45 45 46 46 47
Wind_Direction
278 281 269 265 258 261 258 251 230 261 251 283 296 332 317 297 290 244 266 247 240 248 269 281 293 294 293 290 290 290 283 284 280 278 269 266 261 254 254 254 266 268 267 270 258 256 239 233 230
278 274 257 262 259 265 315 206 222 262 292 284 261 318 326 309 227 229 248 244 257 259 272 284 288 291 290 289 289 287 285 283 280 279 273 267 267 262 263 266 274 279 274 265 263 257 231 233 231
268 255 264 251 252 280 242 356 266 285 280 260 263 251 252 252 282 252 242 250 257 264 275 277 286 294 297 294 293 290 288 286 284 279 278 273 274 271 272 274 274 277 273 270 262 261 267 243 235
254 246 266 250 336 323 287 283 285 263 266 263 273 270 256 267 258 244 257 258 261 266 274 279 287 294 298 298 298 294 292 287 287 283 278 282 276 276 278 278 276 277 277 272 265 261 287 254 246
247 264 261 277 1 334 306 265 264 265 277 282 283 281 233 235 250 249 255 264 273 278 279 282 287 294 297 300 297 293 290 287 286 285 285 284 280 278 279 280 279 278 278 276 275 270 278 244 256
243 267 281 143 50 46 345 323 286 282 299 278 307 310 244 257 247 258 267 279 280 280 281 281 288 294 296 299 298 294 291 288 287 287 286 285 284 283 282 280 280 280 280 279 283 279 274 272 267
262 296 101 115 63 25 341 330 322 320 327 310 268 252 275 240 263 265 274 278 282 284 285 285 286 292 293 295 299 296 293 292 291 289 287 286 288 288 288 285 282 281 281 281 280 276 274 272 266
281 301 123 110 145 48 318 307 313 312 320 302 303 308 286 222 256 271 277 281 285 288 290 290 293 291 292 293 296 296 294 291 290 289 287 287 288 289 290 289 285 283 283 281 280 279 276 270 266
39 353 113 78 11 26 2 306 309 289 290 302 303 307 270 268 274 276 278 282 284 290 293 292 294 295 296 294 295 295 296 296 295 293 291 289 289 292 291 292 292 290 287 287 284 282 279 274 271
356 100 71 7 345 338 350 309 324 316 279 287 285 289 278 272 274 277 280 280 285 294 296 296 296 297 297 295 295 290 295 299 298 296 295 294 292 297 299 299 297 295 293 292 289 285 282 282 277
46 68 64 51 20 342 333 332 355 320 320 2 342 311 300 281 283 286 290 298 303 301 300 304 307 307 306 302 302 296 295 301 305 306 306 300 299 301 299 299 299 299 300 301 302 296 284 286 288
75 67 60 57 49 31 14 3 348 340 327 352 330 337 327 302 295 297 296 303 303 310 314 315 316 317 316 318 317 305 303 301 302 304 303 302 300 300 300 300 300 299 299 297 299 299 299 294 293
60 61 54 58 40 21 0 333 330 325 318 341 320 323 301 299 294 299 301 299 302 302 306 309 309 310 308 307 302 299 298 298 297 296 296 297 296 296 295 295 296 298 297 297 296 296 296 296 299
43 33 37 20 5 348 328 321 313 313 297 320 303 292 289 286 285 285 288 289 291 294 297 300 298 299 300 299 298 296 295 293 293 293 294 293 294 293 293 293 293 293 296 296 295 295 294 292 289
29 358 265 348 353 336 347 334 255 309 298 304 292 286 287 282 280 282 287 288 290 292 294 295 294 295 296 296 295 292 291 291 291 292 292 291 291 291 290 290 290 291 292 293 293 293 293 291 287
359 1 6 12 343 341 334 326 2 315 293 291 293 285 281 282 280 280 282 287 291 293 292 292 293 293 295 294 293 292 291 291 291 291 291 291 291 290 290 289 289 290 290 290 291 291 291 290 287
8 357 351 335 320 335 320 310 309 306 292 285 283 288 287 281 279 281 284 285 289 291 291 291 292 294 294 293 293 291 292 292 291 291 290 290 290 290 290 289 288 289 288 288 289 289 289 288 285
346 344 334 326 339 326 318 309 309 307 296 290 285 286 283 293 291 283 281 289 291 294 293 293 293 293 293 293 292 292 292 291 291 292 290 290 289 290 291 289 288 288 288 287 288 288 288 286 284
331 321 326 341 334 323 314 309 305 320 331 327 321 318 312 309 308 305 289 291 295 297 296 296 296 295 294 293 293 291 292 292 292 292 290 291 291 290 290 291 290 288 287 288 288 287 286 286 284
328 325 337 326 329 318 309 303 297 322 340 336 332 340 336 327 323 317 309 301 300 300 299 298 298 296 294 294 292 291 292 292 291 291 289 288 289 289 291 291 289 289 288 288 288 287 286 284 284
331 338 330 324 326 321 341 321 250 304 339 341 340 327 327 326 325 322 314 309 304 301 300 301 300 298 295 293 294 292 290 290 291 290 289 290 290 289 290 290 289 289 288 288 288 287 286 284 282
318 334 321 317 323 323 317 298 305 272 296 300 312 323 324 323 321 318 314 312 311 304 300 300 301 298 296 294 292 291 290 290 290 290 290 288 287 288 289 290 290 290 288 289 289 288 286 285 283
309 316 306 301 299 314 316 303 360 274 281 279 297 312 315 314 314 312 312 313 313 310 306 303 302 300 299 296 294 292 290 290 290 291 290 288 287 287 288 289 290 289 288 289 289 288 288 286 283
309 315 312 303 309 311 316 304 308 317 297 300 305 311 315 314 313 310 309 311 313 313 310 307 305 303 301 299 297 293 290 290 292 291 290 287 285 285 287 288 288 287 288 289 289 288 288 287 283
328 327 318 317 291 296 343 314 297 293 292 293 303 308 310 311 310 312 311 312 312 315 313 310 306 304 302 300 299 295 293 291 291 291 290 287 286 286 286 287 288 286 288 288 289 289 289 287 284
311 325 315 310 308 306 309 299 320 313 299 300 304 306 306 312 315 316 315 314 314 316 316 313 310 307 304 302 299 298 294 292 293 293 291 289 287 285 286 287 286 284 288 289 290 289 289 287 283
319 314 315 305 293 300 303 303 316 315 316 316 311 306 312 313 313 315 314 314 315 316 316 313 311 310 306 303 302 298 296 294 294 294 292 290 289 287 289 288 286 287 289 290 290 290 288 286 283
298 316 314 307 307 305 308 308 305 316 314 314 311 311 312 310 314 313 312 312 313 315 315 315 312 309 308 306 305 301 299 296 295 294 292 291 290 290 288 288 288 289 291 291 291 290 288 285 283
310 308 299 295 302 302 306 300 314 310 306 308 316 309 308 309 311 312 311 312 313 314 315 315 313 310 309 308 306 303 301 298 296 293 292 293 291 291 290 290 290 291 292 292 292 290 288 286 284
303 306 308 304 300 297 298 298 305 311 316 313 312 311 310 309 310 313 312 311 313 314 315 315 313 311 310 309 308 306 303 300 298 295 295 295 294 292 291 292 293 293 294 294 292 290 288 286 284